N1HRK Weather Reports


Display with metric or nautical units.
time (UTC)temp
F
wind
direction
speed
MPH
gust
MPH
rain 1hr
in
rain 24hr
in
rain mn
in
humidity
%
barometer
mb
20260507040203 56 280 1.0 2.0 0.00 0.19 0.00 97 1006.8
20260507035202 56 271 2.0 4.0 0.00 0.19 0.19 97 1007.0
20260507034202 56 236 3.0 4.0 0.00 0.19 0.19 97 1007.0
20260507033204 56 260 3.0 4.0 0.00 0.19 0.19 97 1007.1
20260507032443 56 256 2.0 3.0 0.00 0.19 0.19 97 1007.1
20260507032204 56 256 2.0 3.0 0.00 0.19 0.19 97 1007.1
20260507031233 56 242 3.0 5.0 0.00 0.19 0.19 97 1007.2
20260507031202 56 242 3.0 5.0 0.00 0.19 0.19 97 1007.2
20260507030203 56 225 1.0 5.0 0.00 0.19 0.19 97 1007.1
20260507025203 56 262 4.0 5.0 0.00 0.19 0.19 97 1006.9
20260507024203 56 226 5.0 7.0 0.00 0.19 0.19 97 1007.1
20260507023203 56 249 4.0 5.0 0.00 0.19 0.19 97 1007.3
20260507022202 56 281 2.0 5.0 0.00 0.19 0.19 97 1007.3
20260507021203 56 269 3.0 4.0 0.00 0.19 0.19 97 1007.4
20260507020203 56 233 5.0 7.0 0.00 0.19 0.19 97 1007.3
20260507015203 56 239 4.0 5.0 0.00 0.19 0.19 97 1007.2
20260507014202 56 263 4.0 6.0 0.00 0.19 0.19 97 1007.3
20260507013204 56 253 4.0 6.0 0.00 0.19 0.19 97 1007.5
20260507012203 55 260 6.0 6.0 0.00 0.19 0.19 97 1007.6
20260507011204 56 228 3.0 5.0 0.00 0.19 0.19 97 1007.6
20260507010202 56 263 4.0 7.0 0.00 0.19 0.19 97 1007.8
20260507005234 55 217 2.0 5.0 0.00 0.19 0.19 97 1007.8
20260507005203 55 217 2.0 5.0 0.00 0.19 0.19 97 1007.8
20260507004202 56 264 5.0 8.0 0.00 0.19 0.19 97 1007.7
20260507003203 56 238 3.0 7.0 0.00 0.19 0.19 97 1007.7
20260507002203 56 240 7.0 7.0 0.00 0.19 0.19 97 1007.5
20260507001202 55 302 3.0 6.0 0.00 0.19 0.19 97 1007.5
20260507000204 55 253 3.0 6.0 0.01 0.19 0.19 97 1007.4
20260506235204 56 202 3.0 8.0 0.01 0.19 0.19 97 1007.5
20260506234232 55 319 5.0 9.0 0.01 0.19 0.19 97 1007.5
20260506234202 55 259 6.0 9.0 0.01 0.19 0.19 97 1007.5
20260506233233 54 218 3.0 7.0 0.01 0.19 0.19 97 1007.4
20260506233203 55 246 6.0 8.0 0.01 0.19 0.19 97 1007.4
20260506232204 55 253 7.0 7.0 0.04 0.19 0.19 97 1007.4
20260506231204 55 260 5.0 9.0 0.05 0.19 0.19 97 1007.4
20260506230204 56 236 5.0 8.0 0.06 0.18 0.18 97 1007.4
20260506225203 55 276 5.0 10.0 0.07 0.18 0.18 97 1007.4
20260506224203 55 231 5.0 8.0 0.08 0.18 0.18 96 1007.2
20260506223204 56 252 5.0 7.0 0.09 0.18 0.18 96 1007.3
20260506222204 55 239 6.0 8.0 0.09 0.16 0.17 96 1007.3
20260506221203 55 211 3.0 11.0 0.07 0.14 0.14 96 1007.4
20260506220203 55 232 4.0 6.0 0.05 0.12 0.12 96 1007.5
20260506215234 56 260 3.0 8.0 0.04 0.11 0.11 96 1007.5
20260506215202 56 243 5.0 8.0 0.04 0.11 0.11 95 1007.6
20260506214204 56 242 5.0 9.0 0.03 0.10 0.10 95 1007.8
20260506213233 56 217 5.0 6.0 0.03 0.09 0.09 95 1007.8
20260506213202 56 257 4.0 7.0 0.03 0.09 0.09 95 1007.8
20260506212203 56 246 3.0 11.0 0.02 0.08 0.08 94 1008.0
20260506211204 56 239 4.0 8.0 0.02 0.08 0.08 94 1008.0
20260506210202 57 174 4.0 9.0 0.01 0.07 0.07 93 1008.1
20260506205203 56 221 7.0 11.0 0.02 0.07 0.07 95 1008.0
20260506204202 56 235 6.0 8.0 0.02 0.07 0.07 94 1008.1
20260506203204 56 225 6.0 8.0 0.02 0.06 0.07 93 1008.2
20260506202204 57 249 7.0 9.0 0.03 0.06 0.06 93 1008.2
20260506201203 57 263 4.0 10.0 0.06 0.06 0.06 93 1008.4
20260506200203 57 253 5.0 12.0 0.06 0.06 0.06 93 1008.4
20260506195233 57 240 7.0 10.0 0.05 0.05 0.05 92 1008.5
20260506195202 57 240 7.0 10.0 0.05 0.05 0.05 92 1008.5
20260506194204 58 202 4.0 10.0 0.05 0.05 0.05 92 1008.6
20260506193203 58 240 6.0 8.0 0.05 0.05 0.05 92 1008.6
20260506192240 58 240 4.0 7.0 0.03 0.03 0.03 90 1008.7
20260506192204 58 240 4.0 7.0 0.03 0.03 0.03 90 1008.7
20260506191233 59 248 4.0 13.0 0.01 0.01 0.01 88 1008.9
20260506191202 59 248 4.0 13.0 0.01 0.01 0.01 88 1008.9
20260506190203 60 233 7.0 14.0 0.00 0.00 0.00 85 1009.0
20260506185233 60 245 8.0 13.0 0.00 0.00 0.00 80 1009.1
20260506185202 60 245 8.0 13.0 0.00 0.00 0.00 80 1009.1
20260506184202 60 262 5.0 11.0 0.00 0.00 0.00 76 1009.2
20260506183202 61 225 5.0 12.0 0.00 0.00 0.00 76 1009.4
20260506182203 62 283 3.0 13.0 0.00 0.00 0.00 74 1009.4
20260506181202 62 200 5.0 15.0 0.00 0.00 0.00 72 1009.5
20260506180204 62 229 8.0 10.0 0.00 0.00 0.00 74 1009.5
20260506175203 62 243 8.0 12.0 0.00 0.00 0.00 74 1009.6
20260506174202 63 228 4.0 10.0 0.00 0.00 0.00 71 1009.9
20260506173203 64 284 4.0 10.0 0.00 0.00 0.00 71 1009.8
20260506172202 64 229 4.0 9.0 0.00 0.00 0.00 71 1010.2
20260506171203 63 246 7.0 14.0 0.00 0.00 0.00 71 1010.1
20260506170203 64 274 6.0 11.0 0.00 0.00 0.00 70 1010.0
20260506165204 64 271 6.0 11.0 0.00 0.00 0.00 70 1010.1
20260506164203 64 198 7.0 13.0 0.00 0.00 0.00 70 1010.3
20260506163204 64 255 6.0 11.0 0.00 0.00 0.00 72 1010.6
20260506162204 63 253 5.0 11.0 0.00 0.00 0.00 74 1010.7
20260506161203 62 208 6.0 15.0 0.00 0.00 0.00 73 1010.8
20260506160203 63 236 6.0 12.0 0.00 0.00 0.00 72 1011.0
20260506155203 63 245 9.0 11.0 0.00 0.00 0.00 71 1011.2
20260506154202 64 208 6.0 11.0 0.00 0.00 0.00 67 1011.0
20260506153203 65 233 9.0 14.0 0.00 0.00 0.00 66 1010.8
20260506152234 65 225 14.0 15.0 0.00 0.00 0.00 68 1011.2
20260506152203 65 225 14.0 15.0 0.00 0.00 0.00 68 1011.2
20260506151203 64 271 4.0 12.0 0.00 0.00 0.00 68 1011.2
20260506150204 62 263 8.0 13.0 0.00 0.00 0.00 70 1011.2
20260506145204 64 233 9.0 12.0 0.00 0.00 0.00 71 1011.5
20260506144203 64 278 8.0 11.0 0.00 0.00 0.00 70 1011.2
20260506143203 64 256 8.0 14.0 0.00 0.00 0.00 69 1011.3
20260506142203 63 235 4.0 12.0 0.00 0.00 0.00 71 1011.4
20260506141203 64 274 3.0 13.0 0.00 0.00 0.00 70 1011.4
20260506140203 64 242 5.0 8.0 0.00 0.00 0.00 73 1011.3
20260506135204 63 253 3.0 11.0 0.00 0.00 0.00 74 1010.8
20260506134203 63 260 8.0 14.0 0.00 0.00 0.00 73 1011.2
20260506133204 63 252 7.0 12.0 0.00 0.00 0.00 72 1011.4
20260506132234 63 263 4.0 8.0 0.00 0.00 0.00 73 1011.5
20260506132203 63 210 4.0 12.0 0.00 0.00 0.00 72 1011.5
20260506131203 62 249 4.0 10.0 0.00 0.00 0.00 76 1011.6
20260506130204 61 235 5.0 8.0 0.00 0.00 0.00 77 1011.7
20260506125204 61 233 4.0 6.0 0.00 0.00 0.00 78 1011.7
20260506124232 61 176 6.0 9.0 0.00 0.00 0.00 79 1011.7
20260506124202 61 242 4.0 7.0 0.00 0.00 0.00 79 1011.8
20260506123235 61 239 3.0 6.0 0.00 0.00 0.00 79 1011.6
20260506123203 61 239 3.0 6.0 0.00 0.00 0.00 79 1011.6
20260506122234 60 232 5.0 9.0 0.00 0.00 0.00 79 1011.6
20260506122203 60 222 5.0 9.0 0.00 0.00 0.00 80 1011.7
20260506121204 60 260 7.0 7.0 0.00 0.00 0.00 81 1011.8
20260506120203 59 294 4.0 7.0 0.00 0.00 0.00 82 1011.8
20260506115203 59 259 5.0 10.0 0.00 0.00 0.00 84 1011.9
20260506114203 59 256 4.0 6.0 0.00 0.00 0.00 85 1012.0
20260506113232 58 278 6.0 8.0 0.00 0.00 0.00 85 1012.2
20260506113202 58 231 3.0 8.0 0.00 0.00 0.00 85 1012.2
20260506112203 58 246 6.0 7.0 0.00 0.00 0.00 86 1012.2
20260506111203 58 250 7.0 10.0 0.00 0.00 0.00 86 1012.2
20260506110203 57 232 6.0 11.0 0.00 0.00 0.00 86 1012.1
20260506105202 58 271 4.0 7.0 0.00 0.00 0.00 86 1012.0
20260506104234 58 243 6.0 10.0 0.00 0.00 0.00 86 1011.9
20260506104203 58 243 6.0 10.0 0.00 0.00 0.00 86 1011.9
20260506103203 58 239 6.0 9.0 0.00 0.00 0.00 87 1011.8
20260506102203 57 253 10.0 11.0 0.00 0.00 0.00 87 1011.8
20260506101203 58 207 6.0 10.0 0.00 0.00 0.00 87 1011.7
20260506100203 57 212 7.0 14.0 0.00 0.00 0.00 87 1011.7
20260506095202 58 252 7.0 9.0 0.00 0.00 0.00 88 1011.5
20260506094203 58 253 5.0 9.0 0.00 0.00 0.00 88 1011.7
20260506093203 58 211 3.0 11.0 0.00 0.00 0.00 88 1011.6
20260506092202 58 238 8.0 8.0 0.00 0.00 0.00 88 1011.8
20260506091204 57 263 8.0 12.0 0.00 0.00 0.00 88 1011.7
20260506090203 58 238 10.0 13.0 0.00 0.00 0.00 88 1011.7
20260506085203 57 228 7.0 10.0 0.00 0.00 0.00 88 1011.9
20260506084202 57 231 2.0 8.0 0.00 0.00 0.00 88 1012.0
20260506083235 58 240 7.0 14.0 0.00 0.00 0.00 87 1012.1
20260506083204 58 240 7.0 14.0 0.00 0.00 0.00 87 1012.1
20260506082203 58 236 9.0 14.0 0.00 0.00 0.00 87 1012.0
20260506081203 57 264 6.0 10.0 0.00 0.00 0.00 87 1012.1
20260506080204 58 260 4.0 8.0 0.00 0.00 0.00 87 1012.2
20260506073204 58 238 6.0 10.0 0.00 0.00 0.00 86 1012.1
20260506072204 59 235 8.0 12.0 0.00 0.00 0.00 85 1012.0
20260506071202 59 246 11.0 13.0 0.00 0.00 0.00 85 1011.9
20260506070203 59 195 4.0 10.0 0.00 0.00 0.00 85 1011.9
20260506062203 59 253 5.0 12.0 0.00 0.00 0.00 84 1011.9
20260506061204 59 250 6.0 10.0 0.00 0.00 0.00 84 1012.1
20260506060203 58 236 8.0 11.0 0.00 0.00 0.00 84 1012.0
20260506051203 59 257 8.0 13.0 0.00 0.00 0.00 82 1012.3
20260506050204 58 252 11.0 15.0 0.00 0.00 0.00 82 1012.3
20260506044202 58 278 6.0 11.0 0.00 0.00 0.00 82 1012.5
20260506043203 58 256 8.0 15.0 0.00 0.00 0.00 82 1012.4
20260506042203 58 238 12.0 14.0 0.00 0.00 0.00 82 1012.4
20260506041203 58 294 5.0 12.0 0.00 0.00 0.00 82 1012.3